Retour au catalogue

STARLINK-4334

ActifCommunicationsSSO
NORAD 53665·PAYLOAD·🇺🇸 United States

Lancé Aug 31, 2022 depuis Vandenberg Space Force Base

Loading…

Prochains Passages (prochaines 24 heures)

TLE

FraisSource: CelesTrak SupGP

Époque: Sep 15, 2026, 01:22 UTC

1 53665C 22105T   26258.05743056  .00782950  00000+0  18828-1 0  2584
2 53665  97.5169 146.4479 0001644  96.3253 270.4667 15.40958688    19

Suivez STARLINK-4334 en temps réel avec AllMySat

Download on the App Store